Home > Weather > Bad Oeynhausen > Past weeks

Flag for Germany Weather for the Past 2 Weeks in Bad Oeynhausen, North Rhine-Westphalia, Germany

Now
63 °F

Scattered clouds.


Feels Like: 63 °F
Forecast: 43 / 54 °F
Wind: 6 mph from Northeast

Location: Bueckeburg

Current Time: May 2, 2016 at 1:03:35 PM

Latest Report: May 2, 2016 at 12:20 PM


Visibility: N/A

Pressure: 30.24 "Hg

Humidity: 49%

Dew Point: 43 °F

Location of Bad OeynhausenLocation

Historic Weather in Bad Oeynhausen — Graph

°F

Bad Oeynhausen Temperature Yesterday

Maximum temperature yesterday: 59 °F (at 3:20 PM)
Minimum temperature yesterday: 39 °F (at 6:20 AM)
Average temperature yesterday: 49 °F

High & Low Weather Summary for the Past Weeks

 TemperatureHumidityPressure
High61 °F (May 2, 11:20 AM)100% (Apr 21, 7:20 AM)30.45 "Hg (Apr 21, 7:20 AM)
Low32 °F (Apr 21, 6:20 AM)36% (Apr 21, 6:20 PM)29.39 "Hg (Apr 26, 1:20 PM)
Average44 °F74%29.98 "Hg
* Reported Apr 17 11:20 AM — May 2 11:20 AM, Bad Oeynhausen, Weather by CustomWeather, © 2016

Note: Actual official high and low records may vary slightly from our data, if they occured in-between our weather recording intervals... More about our weather records

Advertising

Bad Oeynhausen Weather History for the Previous 24 Hours

Scroll right to see more
 ConditionsComfort  
Time TempWeatherWind HumidityBarometerVisibility
11:20 AM
Mon, May 2
61 °FPassing clouds.5 mph59%30.24 "HgN/A
10:20 AM57 °FPassing clouds.2 mph67%30.27 "HgN/A
9:20 AM52 °FPassing clouds.2 mph82%30.27 "HgN/A
8:20 AM46 °FPassing clouds.1 mph93%30.27 "HgN/A
6:20 AM37 °FFog.2 mph100%30.27 "Hg6 mi
5:20 AM37 °FFog.3 mph100%30.30 "HgN/A
4:20 AM39 °FFog.1 mph100%30.30 "HgN/A
3:20 AM41 °FQuite cool.2 mph93%30.30 "HgN/A
2:20 AM41 °FQuite cool.2 mph93%30.33 "HgN/A
1:20 AM43 °FQuite cool.2 mph93%30.33 "HgN/A
12:20 AM45 °FPassing clouds.2 mph87%30.33 "HgN/A
11:20 PM
Sun, May 1
46 °FPassing clouds.2 mph82%30.33 "HgN/A
10:20 PM48 °FPassing clouds.1 mph82%30.33 "HgN/A
9:20 PM54 °FPassing clouds.6 mph67%30.30 "HgN/A
8:20 PM55 °FPassing clouds.7 mph63%30.30 "HgN/A
7:20 PM57 °FPassing clouds.8 mph59%30.27 "HgN/A
6:20 PM57 °FPassing clouds.10 mph59%30.27 "HgN/A
5:20 PM57 °FPassing clouds.12 mph63%30.27 "HgN/A
4:20 PM59 °FPassing clouds.8 mph59%30.27 "HgN/A
3:20 PM59 °FPassing clouds.8 mph55%30.27 "HgN/A
2:20 PM57 °FPassing clouds.10 mph59%30.27 "HgN/A
1:20 PM55 °FPassing clouds.9 mph63%30.27 "HgN/A
Weather by CustomWeather, © 2016

See weather overviewHow to use our weather pages